Home   Weather   Nantes   Past weeks

Flag for France Past Weather in Nantes, Pays de la Loire, France — Yesterday and Last 2 Weeks

Now
23 °F

Ice fog.


Feels Like: 18 °F
Forecast: 25 / 43 °F
Wind: 3 mph from Northeast

Location: Nantes Airport

Current Time: Jan 21, 2017 at 7:47:25 am

Latest Report: Jan 21, 2017 at 7:00 am


Visibility: 3 mi

Pressure: 30.27 "Hg

Humidity: 93%

Dew Point: 21 °F

Location of NantesLocation

Past Weather in Nantes — Graph

°F

Nantes Temperature Yesterday

Maximum temperature yesterday: 36 °F (at 3:00 pm)
Minimum temperature yesterday: 21 °F (at 8:00 am)
Average temperature yesterday: 28 °F

High & Low Weather Summary for the Past Weeks

 TemperatureHumidityPressure
High57 °F (Jan 11, 1:30 pm)100% (Jan 6, 6:00 am)30.66 "Hg (Jan 6, 6:00 am)
Low19 °F (Jan 21, 6:00 am)36% (Jan 7, 2:30 pm)29.62 "Hg (Jan 12, 4:30 pm)
Average39 °F83%30.31 "Hg
* Reported Jan 6 6:00 am — Jan 21 6:30 am, Nantes, Weather by CustomWeather, © 2017

Note: Actual official high and low records may vary slightly from our data, if they occured in-between our weather recording intervals... More about our weather records

Advertising

Nantes Weather History for the Previous 24 Hours

Scroll right to see more
 ConditionsComfort  
Time TempWeatherWind HumidityBarometerVisibility
6:30 am
Sat, Jan 21
23 °FIce fog.3 mph93%30.27 "Hg3 mi
6:00 am19 °FIce fog.3 mph93%30.27 "Hg2 mi
5:30 am21 °FIce fog.2 mph86%30.27 "Hg3 mi
5:00 am21 °FIce fog.2 mph93%30.27 "Hg3 mi
4:30 am23 °FIce fog.2 mph93%30.27 "Hg3 mi
4:00 am21 °FIce fog.1 mph93%30.30 "Hg3 mi
3:30 am25 °FIce fog.2 mph86%30.30 "Hg3 mi
3:00 am25 °FIce fog.1 mph93%30.30 "Hg3 mi
2:30 am27 °FIce fog.3 mph86%30.30 "Hg3 mi
2:00 am27 °FIce fog.5 mph86%30.30 "Hg3 mi
1:30 am27 °FIce fog.5 mph86%30.30 "Hg3 mi
1:00 am27 °FIce fog.5 mph86%30.30 "Hg3 mi
12:30 am27 °FIce fog.6 mph86%30.30 "Hg3 mi
12:00 am27 °FIce fog.5 mph86%30.33 "Hg3 mi
11:30 pm
Fri, Jan 20
28 °FIce fog.5 mph80%30.33 "Hg3 mi
11:00 pm28 °FIce fog.5 mph80%30.33 "Hg3 mi
10:30 pm28 °FIce fog.7 mph80%30.33 "Hg3 mi
10:00 pm28 °FIce fog.6 mph86%30.33 "Hg3 mi
9:30 pm28 °FIce fog.6 mph86%30.33 "Hg3 mi
9:00 pm30 °FIce fog.6 mph80%30.33 "Hg3 mi
8:30 pm30 °FIce fog.5 mph80%30.33 "Hg3 mi
8:00 pm30 °FIce fog.5 mph80%30.33 "Hg3 mi
7:30 pm30 °FIce fog.6 mph80%30.33 "Hg3 mi
7:00 pm30 °FClear.5 mph80%30.33 "Hg4 mi
6:30 pm30 °FClear.3 mph80%30.33 "Hg4 mi
6:00 pm32 °FClear.7 mph75%30.33 "Hg4 mi
5:30 pm34 °FClear.8 mph70%30.30 "Hg4 mi
5:00 pm34 °FClear.9 mph75%30.33 "Hg4 mi
4:30 pm36 °FClear.8 mph65%30.33 "Hg4 mi
4:00 pm36 °FClear.7 mph65%30.30 "Hg4 mi
3:30 pm36 °FClear.8 mph65%30.30 "Hg4 mi
3:00 pm36 °FClear.7 mph65%30.33 "Hg4 mi
2:30 pm34 °FClear.7 mph75%30.33 "Hg4 mi
2:00 pm34 °FClear.8 mph70%30.33 "Hg4 mi
1:30 pm32 °FClear.7 mph75%30.33 "Hg4 mi
1:00 pm32 °FClear.7 mph75%30.36 "Hg4 mi
12:30 pm30 °FClear.7 mph75%30.36 "Hg4 mi
12:00 pm30 °FIce fog.7 mph75%30.36 "Hg3 mi
11:30 am28 °FIce fog.6 mph80%30.36 "Hg3 mi
11:00 am27 °FIce fog.9 mph80%30.39 "Hg3 mi
10:30 am27 °FIce fog.8 mph80%30.39 "Hg3 mi
10:00 am25 °FIce fog.9 mph86%30.36 "Hg3 mi
9:30 am25 °FIce fog.7 mph86%30.39 "Hg3 mi
9:00 am23 °FIce fog.5 mph93%30.39 "Hg2 mi
8:30 am21 °FIce fog.5 mph93%30.36 "Hg3 mi
8:00 am21 °FIce fog.3 mph93%30.36 "Hg3 mi
7:30 am23 °FIce fog.2 mph86%30.36 "Hg3 mi
7:00 am23 °FIce fog.5 mph93%30.36 "Hg3 mi
Weather by CustomWeather, © 2017

See weather overviewHow to use our weather pages